Vorticity
nan nan nan nan nan nan nan nan nan nan nan nan nan nan nan nan nan nan nan nan nan nan nan nan nan nan nan nan nan nan nan nan nan nan nan nan nan nan nan nan nan nan nan
nan 11 12 9 11 11 14 10 5 7 3 4 6 6 9 7 8 9 11 8 9 6 5 7 8 8 7 10 8 6 6 9 8 7 4 3 5 9 9 8 10 9 nan
nan 6 7 8 11 11 14 11 8 7 8 3 2 6 6 8 9 10 9 10 8 7 7 6 4 8 7 9 8 9 6 7 8 9 3 4 10 7 4 8 7 7 nan
nan 2 7 12 7 11 15 12 10 8 9 8 5 6 4 6 7 9 8 8 10 8 7 7 7 5 9 7 9 7 7 7 8 9 6 4 6 5 3 6 6 8 nan
nan 9 5 4 9 15 10 11 12 8 8 9 5 6 6 4 8 10 10 8 10 11 8 8 7 5 7 9 9 7 7 5 7 9 8 5 5 6 5 6 7 6 nan
nan 14 9 9 8 10 13 10 12 7 9 10 9 4 7 4 6 7 7 11 10 13 12 7 7 8 7 9 8 10 7 6 7 6 9 9 8 7 6 8 13 7 nan
nan 17 17 10 8 10 7 10 9 9 10 8 8 8 8 9 6 5 8 8 8 11 14 9 6 7 8 7 8 9 9 7 7 6 5 9 8 8 8 9 10 8 nan
nan 24 12 17 14 7 11 13 7 9 9 10 10 9 4 6 10 8 6 8 10 12 11 11 8 8 7 7 6 7 10 9 9 8 4 5 10 9 9 10 8 8 nan
nan 15 25 20 13 15 10 10 15 8 9 9 9 9 9 7 7 7 6 8 8 10 12 10 9 8 8 8 5 7 8 8 9 9 8 5 7 8 8 11 9 7 nan
nan 9 12 24 21 13 13 10 14 13 9 8 9 11 11 7 6 9 8 7 8 10 11 9 10 9 9 8 6 6 9 6 6 10 9 6 5 8 9 10 8 6 nan
nan 9 13 19 22 18 13 14 13 9 9 10 9 9 9 10 7 8 9 8 8 9 10 10 10 10 9 8 7 7 9 8 6 7 10 8 6 5 7 9 7 8 nan
nan 12 17 21 21 24 20 13 12 14 9 9 10 10 9 10 9 8 8 9 8 9 8 10 10 10 10 10 9 7 8 10 8 7 8 7 9 9 6 8 9 8 nan
nan 11 23 19 11 15 18 25 25 13 10 13 11 9 10 9 10 10 9 9 10 8 9 9 10 10 10 9 10 9 8 8 9 9 9 9 7 7 8 8 9 9 nan
nan 12 13 17 17 14 14 16 13 16 22 20 16 9 9 9 10 10 11 10 10 9 10 9 9 9 10 11 10 10 9 9 10 11 9 10 9 9 7 9 9 8 nan
nan 11 13 14 15 14 12 13 13 13 17 18 20 21 11 9 9 11 11 10 9 10 10 10 9 9 9 12 13 11 10 10 10 9 10 11 13 12 9 11 13 9 nan
nan 6 9 10 11 11 13 11 11 13 17 19 19 16 21 19 9 11 10 10 11 10 9 10 10 7 9 14 13 11 11 11 10 10 11 10 11 15 15 12 14 12 nan
nan 8 6 8 8 11 11 9 10 12 13 14 15 19 18 20 20 11 10 11 11 10 10 10 10 10 10 14 13 9 7 11 11 9 9 9 9 12 13 16 16 13 nan
nan 14 6 5 7 8 10 11 10 10 10 10 10 11 15 18 20 21 15 8 11 11 11 11 10 10 13 16 13 11 6 8 12 11 9 10 12 12 13 11 10 10 nan
nan 12 12 7 4 6 8 12 10 9 8 8 9 9 11 13 16 20 22 17 10 11 12 11 12 11 13 14 11 8 10 9 10 13 15 13 13 16 12 8 7 5 nan
nan 14 15 9 10 10 4 7 9 7 7 8 9 10 10 11 13 14 17 19 20 13 12 12 13 13 14 12 11 3 7 12 10 13 18 17 14 15 7 6 7 5 nan
nan 11 12 13 12 12 10 5 7 8 8 8 9 9 10 10 11 14 14 15 19 22 17 12 13 13 13 11 14 5 1 10 10 9 10 14 22 16 5 5 9 14 nan
nan 11 13 10 9 10 11 8 10 9 9 9 9 9 9 12 8 9 12 13 15 17 24 23 11 14 15 17 17 11 5 6 9 8 9 19 20 12 8 7 19 16 nan
nan 10 10 10 9 9 11 11 10 9 11 10 10 8 10 10 11 9 11 12 13 13 14 19 19 11 9 21 25 17 13 12 11 15 19 20 15 6 5 16 18 0 nan
nan 9 9 10 10 9 10 11 12 10 12 12 11 11 10 9 11 13 10 9 11 11 11 12 13 10 12 13 12 14 15 11 15 19 15 14 12 13 13 14 6 4 nan
nan 9 9 9 9 9 10 11 10 12 12 12 13 13 10 9 11 11 11 11 11 11 11 12 13 11 11 8 13 17 8 11 12 7 9 11 9 11 11 9 8 11 nan
nan nan nan nan nan nan nan nan nan nan nan nan nan nan nan nan nan nan nan nan nan nan nan nan nan nan nan nan nan nan nan nan nan nan nan nan nan nan nan nan nan nan nan
CAPE
0 0 0 0 0 133 845 2429 2163 2512 2411 2084 2006 1920 1779 1979 1809 1671 1711 1742 1414 1046 1087 228 350 463 254 124 462 139 383 538 1221 884 1575 1734 1453 1312 1401 1105 869 550 713
0 0 0 0 0 6 652 1554 1992 2203 2230 2234 2164 2218 2114 2016 1613 1766 1897 1887 1648 1543 1130 932 501 639 269 508 505 525 344 588 1537 1179 1332 1041 1035 918 771 457 483 522 569
0 0 0 0 0 1 954 1293 1783 1986 1917 2318 2170 2146 1915 1931 1808 1968 2026 1913 1818 1782 1370 1138 971 903 614 527 941 763 690 843 1387 1937 1235 1150 845 679 40 16 37 81 0
0 0 0 0 0 128 1046 1523 1946 2048 1764 2063 2184 2140 1847 1718 1959 2003 1650 1595 1932 2010 1703 1326 1085 1329 789 645 957 1028 834 826 1106 1737 1789 1933 1345 842 45 0 0 0 1
0 0 0 0 0 30 1711 2387 2340 2264 2022 1993 2455 2431 2304 2150 2064 1774 1543 1542 1923 2292 2003 1814 1449 1498 1137 950 1154 1335 1727 1019 903 1455 1706 1938 1510 1540 1000 70 0 0 0
0 0 0 0 0 145 2258 2721 2458 2220 2025 2325 2614 2901 2733 2332 1925 1891 1727 1592 1535 2302 2305 2139 1873 1512 1497 1362 1588 1704 2137 1702 888 1397 1663 1607 1704 1450 1194 646 3 0 0
0 0 0 0 0 2 1256 2708 2564 2322 2791 2695 2923 2817 2849 2609 2230 1980 1743 1726 1667 1856 2312 2398 2186 1875 1664 1617 1636 2171 2273 2031 1911 1619 1976 1779 1700 1572 1336 1068 72 0 0
40 14 0 0 0 4 36 2241 2179 2519 2520 3075 2984 2778 2994 2627 2264 1856 1722 1679 1827 1736 2518 2397 2403 2162 1903 1804 1818 1875 2292 2353 2148 2360 1825 1986 1754 1857 1577 1235 201 17 0
0 2 33 0 0 0 9 306 2143 2382 2398 2966 3142 2981 2746 2695 2316 2226 1965 1665 1922 1995 2283 2624 2497 2395 2348 1996 1841 1712 2089 2259 2420 2291 2575 1917 2050 1979 2141 1693 469 143 0
0 0 0 0 0 0 1 247 916 2223 2298 2735 3101 3004 2769 2801 2620 2484 2241 2033 1845 2227 2155 2714 2674 2629 2434 2343 2019 1803 1723 2107 2209 2249 2359 2433 2064 2246 1979 2253 927 229 470
0 0 0 4 0 0 10 44 154 2043 2400 2438 2854 3214 3187 2930 2899 2927 2591 2310 2336 2340 2503 2492 2718 2674 2611 2444 2301 1946 1797 1735 2023 2083 2208 2325 2446 2140 2402 2285 1677 672 662
1 3 0 44 0 5 0 6 189 363 2169 2498 2677 3008 3330 3390 3147 2964 2936 2732 2483 2464 2389 2456 2546 2662 2588 2575 2342 2112 1699 1815 1806 1904 1985 2064 2082 2486 2403 2313 2274 1639 999
8 8 0 75 1 0 12 113 67 98 1489 2236 2739 2897 2998 3177 3250 3158 3023 3015 2677 2578 2506 2453 2522 2405 2457 2378 2398 2192 2069 1821 1799 1836 1935 1845 2038 2319 2336 2341 2127 1409 658
13 11 2 0 33 9 3 32 79 171 4 997 2896 3094 2718 2719 3255 3381 3506 3252 3126 2818 2717 2603 2720 2655 2676 2517 2432 2261 2217 2092 1825 1835 1880 1934 1933 2177 2348 2265 1748 803 284
18 18 13 0 1 10 5 0 1 14 119 192 262 2840 3000 2850 2768 3404 3492 3500 3308 3242 3179 3109 3050 3131 2862 2581 2696 2498 2399 2298 2175 2019 1935 1958 1874 1639 2001 1726 1030 336 9
14 10 21 7 0 0 7 0 0 3 4 105 373 220 1854 3105 3187 3319 3409 3368 3138 3150 3230 3348 3259 3226 2844 2302 1975 2393 2724 2539 2319 2305 2275 2121 1068 364 497 548 515 69 0
4 18 17 16 13 8 4 11 6 1 2 3 3 64 200 400 2696 3050 3071 3230 3315 3253 3183 3276 3309 3331 3307 2006 986 931 2432 2599 2095 1996 1562 1365 1100 597 1 0 0 0 0
45 35 25 10 17 10 8 5 1 0 0 0 0 2 4 8 288 1378 2355 2683 2966 3168 3178 3145 3175 3232 3144 1585 257 109 1465 1769 1503 1597 1285 825 429 66 3 0 0 0 0
23 32 53 25 8 10 9 1 0 0 0 0 0 0 4 6 3 151 732 2426 2630 2944 3059 2973 2905 2957 2703 421 0 0 754 1227 914 876 909 506 0 0 1 0 0 0 1
0 1 46 45 66 23 7 0 0 0 0 1 0 0 2 4 7 6 2 394 2032 2526 2816 2830 2860 2439 2076 76 0 0 661 695 514 195 7 0 0 2 1 0 1 0 0
0 0 0 0 0 36 69 22 0 0 0 0 0 0 0 0 5 3 5 3 9 1488 2316 2507 2519 1896 1184 1040 2 1 697 320 115 0 1 0 1 1 1 0 1 0 0
0 0 0 0 0 0 0 0 3 0 0 0 0 0 0 0 2 0 1 4 2 1 539 1979 1762 1510 1070 855 1 1 31 118 0 0 0 1 1 1 0 0 0 0 0
0 0 0 0 0 0 0 0 0 0 0 0 0 0 0 0 0 0 0 1 1 0 0 2 804 3 0 1 2 1 1 2 0 0 1 0 1 2 0 0 1 0 0
0 0 0 0 0 0 0 0 0 1 1 1 0 0 0 0 0 1 0 0 0 0 0 0 0 0 0 1 0 1 0 1 1 1 0 1 0 0 4 0 0 0 0
0 0 0 0 0 0 0 0 0 0 1 4 4 14 1 1 2 0 2 0 0 0 0 0 0 1 0 0 0 0 0 0 0 0 0 0 0 0 0 0 0 0 0
0 0 0 0 0 0 0 0 0 0 1 1 5 12 17 3 3 1 0 0 1 0 0 0 0 0 0 1 0 0 0 0 0 0 0 0 0 0 0 0 0 0 0